International Skating Union - Official Site

ISU World Cup Calgary
November 13-15, 2015

Draw | Lap Times | Index | World Cup

Referee: Rick  HUNT  (CAN)
Starter: Bruce  LANSER  (USA)
StartTime: EndTime: Air Temp: Ice Temp: Humidity:
12:31 13:12 16.5℃ -7.5℃ 30%
Result 3000m Ladies Division A
Rankings as of Nov 15 2015 4:47PM
Rank: No.: Name: Nation: Time: Behind: Points:
1 227 Martina  Sábliková CZE CZE 3:57.21200m - 19.92 - (19.9)
600m - 50.03 - (30.1)
1000m - 1:20.27 - (30.2)
1400m - 1:50.92 - (30.6)
1800m - 2:21.88 - (30.9)
2200m - 2:53.11 - (31.2)
2600m - 3:24.87 - (31.7)
3000m - 3:57.21 - (32.3)
100
2 269 Irene  Schouten NED NED 3:58.39200m - 19.79 - (19.7)
600m - 49.98 - (30.1)
1000m - 1:20.67 - (30.6)
1400m - 1:51.84 - (31.1)
1800m - 2:23.09 - (31.2)
2200m - 2:54.68 - (31.5)
2600m - 3:26.36 - (31.6)
3000m - 3:58.39 - (32.0)
1.18 80
3 293 Natalya  Voronina RUS RUS 3:58.78200m - 19.64 - (19.6)
600m - 49.78 - (30.1)
1000m - 1:19.92 - (30.1)
1400m - 1:50.61 - (30.6)
1800m - 2:21.88 - (31.2)
2200m - 2:53.77 - (31.8)
2600m - 3:26.05 - (32.2)
3000m - 3:58.78 - (32.7)
1.57 70
4 278 Jorien  Voorhuis NED NED 4:00.39200m - 19.99 - (19.9)
600m - 51.06 - (31.0)
1000m - 1:22.56 - (31.5)
1400m - 1:54.08 - (31.5)
1800m - 2:25.33 - (31.2)
2200m - 2:56.90 - (31.5)
2600m - 3:28.37 - (31.4)
3000m - 4:00.39 - (32.0)
3.18 60
5 276 Annouk  van der Weijden NED NED 4:00.45200m - 19.74 - (19.7)
600m - 50.09 - (30.3)
1000m - 1:21.12 - (31.0)
1400m - 1:52.20 - (31.0)
1800m - 2:23.64 - (31.4)
2200m - 2:55.41 - (31.7)
2600m - 3:27.60 - (32.1)
3000m - 4:00.45 - (32.8)
3.24 50
6 265 Marije  Joling NED NED 4:00.48200m - 19.32 - (19.3)
600m - 48.90 - (29.5)
1000m - 1:18.69 - (29.7)
1400m - 1:49.07 - (30.3)
1800m - 2:19.93 - (30.8)
2200m - 2:52.49 - (32.5)
2600m - 3:26.26 - (33.7)
3000m - 4:00.48 - (34.2)
3.27 45
7 206 Ivanie  Blondin CAN CAN 4:02.19200m - 20.02 - (20.0)
600m - 50.47 - (30.4)
1000m - 1:21.08 - (30.6)
1400m - 1:51.99 - (30.9)
1800m - 2:23.27 - (31.2)
2200m - 2:55.08 - (31.8)
2600m - 3:27.63 - (32.5)
3000m - 4:02.19 - (34.5)
4.98 40
8 235 Claudia  Pechstein GER GER 4:02.30200m - 20.46 - (20.4)
600m - 51.20 - (30.7)
1000m - 1:22.20 - (31.0)
1400m - 1:53.22 - (31.0)
1800m - 2:24.78 - (31.5)
2200m - 2:56.63 - (31.8)
2600m - 3:29.22 - (32.5)
3000m - 4:02.30 - (33.0)
5.09 35
9 288 Olga  Graf RUS RUS 4:02.62200m - 21.33 - (21.3)
600m - 52.28 - (30.9)
1000m - 1:23.34 - (31.0)
1400m - 1:54.44 - (31.1)
1800m - 2:26.00 - (31.5)
2200m - 2:57.84 - (31.8)
2600m - 3:30.08 - (32.2)
3000m - 4:02.62 - (32.5)
5.41 30
10 280 Ida  Njåtun NOR NOR 4:03.31200m - 20.05 - (20.0)
600m - 51.43 - (31.3)
1000m - 1:23.14 - (31.7)
1400m - 1:54.88 - (31.7)
1800m - 2:26.53 - (31.6)
2200m - 2:58.51 - (31.9)
2600m - 3:30.68 - (32.1)
3000m - 4:03.31 - (32.6)
6.10 25
11 268 Yvonne  Nauta NED NED 4:03.77200m - 20.01 - (20.0)
600m - 50.45 - (30.4)
1000m - 1:21.17 - (30.7)
1400m - 1:52.35 - (31.1)
1800m - 2:23.95 - (31.6)
2200m - 2:56.24 - (32.2)
2600m - 3:29.26 - (33.0)
3000m - 4:03.77 - (34.5)
6.56 21
12 289 Anna  Yurakova RUS RUS 4:04.09200m - 20.56 - (20.5)
600m - 51.76 - (31.2)
1000m - 1:23.22 - (31.4)
1400m - 1:54.41 - (31.1)
1800m - 2:26.03 - (31.6)
2200m - 2:58.22 - (32.1)
2600m - 3:31.03 - (32.8)
3000m - 4:04.09 - (33.0)
6.88 18
13 231 Stephanie  Beckert GER GER 4:04.91200m - 21.36 - (21.3)
600m - 52.77 - (31.4)
1000m - 1:24.18 - (31.4)
1400m - 1:55.81 - (31.6)
1800m - 2:27.65 - (31.8)
2200m - 2:59.67 - (32.0)
2600m - 3:32.22 - (32.5)
3000m - 4:04.91 - (32.6)
7.70 16
14 241 Ayaka  Kikuchi JPN JPN 4:08.03200m - 20.09 - (20.0)
600m - 50.94 - (30.8)
1000m - 1:22.08 - (31.1)
1400m - 1:53.77 - (31.6)
1800m - 2:26.06 - (32.2)
2200m - 2:59.64 - (33.5)
2600m - 3:33.70 - (34.0)
3000m - 4:08.03 - (34.3)
10.82 14
15 251 Bo-Reum  Kim KOR KOR 4:08.95200m - 20.71 - (20.7)
600m - 52.77 - (32.0)
1000m - 1:24.88 - (32.1)
1400m - 1:56.82 - (31.9)
1800m - 2:29.13 - (32.3)
2200m - 3:01.84 - (32.7)
2600m - 3:34.93 - (33.0)
3000m - 4:08.95 - (34.0)
11.74 12
16 246 Nana  Takagi JPN JPN 4:17.79200m - 20.22 - (20.2)
600m - 51.57 - (31.3)
1000m - 1:23.34 - (31.7)
1400m - 1:55.60 - (32.2)
1800m - 2:28.41 - (32.8)
2200m - 3:02.76 - (34.3)
2600m - 3:39.24 - (36.4)
3000m - 4:17.79 - (38.5)
20.58 10